Weather in Aeroport

Russia / Republic of Bashkortostan     54°34′11″N   55°54′06″E
temp.,
°C
wind,
m/s
gust,
m/s
humid.,
%
clouds,
%
prec.,
mm/h
press.,
hPa
HPBL,
m
9 december, thu
thu923:00−5s61477100 0.0 1035368
02:00−5s61576100 0.0 1035388
05:00−5s51472100 0.0 1034369
08:00−6s41272100 0.0 1034291
11:00−6sse41271100 0.0 1033300
14:00−4s4146575 0.0 1032378
17:00−5sse3874100 0.0 1031161
20:00−4sse4137190 0.0 1029282
10 december, fri
fri1023:00−4s41266100 0.0 1028268
02:00−5s2575100 0.0 102887
05:00−6se2280100 0.0 102717
08:00−6se2282100 0.0 102736
11:00−5sse1176100 0.0 102747
14:00−3nne1176100 0.0 102734
17:00−5nne2386100 0.0 102747
20:00−5n4887100 0.0 1028181
11 december, sat
sat1123:00−5n51091100 0.0 1028227
02:00−5nne7149121 0.0 1028364
05:00−7nne815824 0.0 1029364
08:00−8nne815772 0.0 1031373
11:00−9nne815751 0.0 1032362
14:00−7nne715720 0.0 1033446
17:00−7nne714700 0.0 1035342
20:00−9nne512791 0.0 1037236
12 december, sun
sun1223:00−9n510824 0.0 1038215
02:00−10n49855 0.0 1039206
05:00−11n38905 0.0 1040169
08:00−11nnw25925 0.0 1041100
11:00−11n23895 0.0 1043100
14:00−8nnw23835 0.0 1043111
17:00−11nw22925 0.0 104411
20:00−12nw22935 0.0 104513
13 december, mon
mon1323:00−12nw11945 0.0 104510
02:00−13nw119452 0.0 10459
05:00−13wnw01945 0.0 10459
08:00−13ssw00945 0.0 10459
11:00−12sw119112 0.0 104522
14:00−9w008171 0.0 104430
17:00−11s118852 0.0 10449
20:00−12ssw219158 0.0 104310